Tracking 27420 objects as of 10-Jun-2023
HD Live streaming from Space Station
objects crossing your sky now

EXPLORER 29 (GEOS 1)

Track EXPLORER 29 (GEOS 1) now!
10-day predictions
EXPLORER 29 (GEOS 1) is classified as:


NORAD ID: 1726
Int'l Code: 1965-089A
Perigee: 1,125.9 km
Apogee: 2,276.5 km
Inclination: 59.4 °
Period: 120.3 minutes
Semi major axis: 8072 km
RCS: 1.3858 m2 (large)
Launch date: November 6, 1965
Source: United States (US)
Launch site: AIR FORCE EASTERN TEST RANGE (AFETR)
Your satellite tracking list
Your tracking list is empty




NASA's NSSDC Master Catalog

Two Line Element Set (TLE):
1 01726U 65089A   23161.55833387 -.00000048  00000-0  15750-3 0  9993
2 01726  59.3846 347.6458 0712672 219.8248 168.5615 11.97056188517651
Source of the keplerian elements: AFSPC